Time,TemperatureF,DewpointF,PressureIn,WindDirection,WindDirectionDegrees,WindSpeedMPH,WindSpeedGustMPH,Humidity,HourlyPrecipIn,Conditions,Clouds,dailyrainin,SolarRadiationWatts/m^2,SoftwareType,DateUTC
2013-03-29 00:00:00,54.9,50.5,30.11,SW,235,0.0,0.0,85,0.00,,,0.05,0,Wunderground v.1.15,2013-03-29 07:00:00,
2013-03-29 00:10:00,54.6,50.2,30.11,WSW,244,1.0,1.0,85,0.00,,,0.00,0,Wunderground v.1.15,2013-03-29 07:10:00,
2013-03-29 00:20:00,54.6,50.5,30.11,WSW,248,0.0,0.0,86,0.00,,,0.00,0,Wunderground v.1.15,2013-03-29 07:20:00,
2013-03-29 00:30:00,54.5,50.4,30.11,WSW,252,1.0,1.0,86,0.00,,,0.00,0,Wunderground v.1.15,2013-03-29 07:30:00,
2013-03-29 00:40:00,54.4,50.3,30.11,WSW,256,0.0,0.0,86,0.00,,,0.00,0,Wunderground v.1.15,2013-03-29 07:40:00,
2013-03-29 00:50:00,54.4,50.3,30.12,WSW,258,0.0,0.0,86,0.00,,,0.00,0,Wunderground v.1.15,2013-03-29 07:50:00,
2013-03-29 01:00:00,54.4,50.6,30.12,WSW,258,0.0,0.0,87,0.00,,,0.00,0,Wunderground v.1.15,2013-03-29 08:00:00,
2013-03-29 01:10:00,54.4,50.6,30.12,West,261,0.0,0.0,87,0.00,,,0.00,0,Wunderground v.1.15,2013-03-29 08:10:00,
2013-03-29 01:20:00,54.4,50.6,30.12,West,269,0.0,1.0,87,0.00,,,0.00,0,Wunderground v.1.15,2013-03-29 08:20:00,
2013-03-29 01:30:00,54.5,50.7,30.12,West,269,0.0,0.0,87,0.00,,,0.00,0,Wunderground v.1.15,2013-03-29 08:30:00,
2013-03-29 01:40:00,54.4,50.6,30.12,West,267,0.0,0.0,87,0.00,,,0.00,0,Wunderground v.1.15,2013-03-29 08:40:00,
2013-03-29 01:50:00,54.2,50.4,30.12,West,267,0.0,0.0,87,0.00,,,0.00,0,Wunderground v.1.15,2013-03-29 08:50:00,
2013-03-29 02:00:00,54.1,50.3,30.12,West,268,0.0,0.0,87,0.00,,,0.00,0,Wunderground v.1.15,2013-03-29 09:00:00,
2013-03-29 02:10:00,54.0,50.2,30.12,West,270,0.0,0.0,87,0.00,,,0.00,0,Wunderground v.1.15,2013-03-29 09:10:00,
2013-03-29 02:20:00,53.9,50.1,30.12,West,267,0.0,0.0,87,0.00,,,0.00,0,Wunderground v.1.15,2013-03-29 09:20:00,
2013-03-29 02:30:00,53.9,50.1,30.12,West,264,0.0,0.0,87,0.00,,,0.00,0,Wunderground v.1.15,2013-03-29 09:30:00,
2013-03-29 02:40:00,53.8,50.0,30.12,West,264,0.0,0.0,87,0.00,,,0.00,0,Wunderground v.1.15,2013-03-29 09:40:00,
2013-03-29 02:50:00,53.7,49.9,30.12,West,263,0.0,1.0,87,0.00,,,0.00,0,Wunderground v.1.15,2013-03-29 09:50:00,
2013-03-29 03:00:00,53.6,50.1,30.12,West,263,0.0,0.0,88,0.00,,,0.00,0,Wunderground v.1.15,2013-03-29 10:00:00,
2013-03-29 03:10:00,53.5,50.0,30.11,West,261,0.0,0.0,88,0.00,,,0.00,0,Wunderground v.1.15,2013-03-29 10:10:00,
2013-03-29 03:20:00,53.5,50.0,30.11,WSW,240,1.0,1.0,88,0.00,,,0.00,0,Wunderground v.1.15,2013-03-29 10:20:00,
2013-03-29 03:30:00,53.6,50.1,30.11,WSW,247,1.0,1.0,88,0.00,,,0.00,0,Wunderground v.1.15,2013-03-29 10:30:00,
2013-03-29 03:40:00,53.8,50.3,30.11,WNW,292,1.0,1.0,88,0.00,,,0.00,0,Wunderground v.1.15,2013-03-29 10:40:00,
2013-03-29 03:50:00,54.0,50.2,30.11,NW,309,1.0,1.0,87,0.00,,,0.00,0,Wunderground v.1.15,2013-03-29 10:50:00,
2013-03-29 04:00:00,54.2,49.8,30.11,NW,304,0.0,0.0,85,0.00,,,0.00,0,Wunderground v.1.15,2013-03-29 11:00:00,
2013-03-29 04:10:00,54.4,49.7,30.11,WNW,299,1.0,1.0,84,0.00,,,0.00,0,Wunderground v.1.15,2013-03-29 11:10:00,
2013-03-29 04:20:00,54.5,49.4,30.11,WNW,296,1.0,1.0,83,0.00,,,0.00,0,Wunderground v.1.15,2013-03-29 11:20:00,
2013-03-29 04:30:00,54.7,49.3,30.11,WNW,294,1.0,1.0,82,0.00,,,0.00,0,Wunderground v.1.15,2013-03-29 11:30:00,
2013-03-29 04:40:00,54.6,48.9,30.11,WNW,290,1.0,1.0,81,0.00,,,0.00,0,Wunderground v.1.15,2013-03-29 11:40:00,
2013-03-29 04:50:00,54.5,48.8,30.11,WNW,292,1.0,1.0,81,0.00,,,0.00,0,Wunderground v.1.15,2013-03-29 11:50:00,
2013-03-29 05:00:00,54.0,48.0,30.11,North,350,0.0,0.0,80,0.00,,,0.00,0,Wunderground v.1.15,2013-03-29 12:00:00,
2013-03-29 05:10:00,53.8,48.1,30.11,ESE,106,0.0,0.0,81,0.00,,,0.00,0,Wunderground v.1.15,2013-03-29 12:10:00,
2013-03-29 05:20:00,53.5,47.8,30.11,North,5,0.0,0.0,81,0.00,,,0.00,0,Wunderground v.1.15,2013-03-29 12:20:00,
2013-03-29 05:30:00,53.7,48.0,30.12,North,360,0.0,0.0,81,0.00,,,0.00,0,Wunderground v.1.15,2013-03-29 12:30:00,
2013-03-29 05:40:00,53.7,48.0,30.12,NNE,14,0.0,0.0,81,0.00,,,0.00,0,Wunderground v.1.15,2013-03-29 12:40:00,
2013-03-29 05:50:00,54.2,48.5,30.12,NNE,26,1.0,1.0,81,0.00,,,0.00,0,Wunderground v.1.15,2013-03-29 12:50:00,
2013-03-29 06:00:00,54.6,48.6,30.12,NE,34,1.0,1.0,80,0.00,,,0.00,0,Wunderground v.1.15,2013-03-29 13:00:00,
2013-03-29 06:10:00,54.9,48.5,30.12,NNE,30,1.0,1.0,79,0.00,,,0.00,0,Wunderground v.1.15,2013-03-29 13:10:00,
2013-03-29 06:20:00,55.1,48.4,30.12,North,5,1.0,3.0,78,0.00,,,0.00,0,Wunderground v.1.15,2013-03-29 13:20:00,
2013-03-29 06:30:00,55.4,48.3,30.12,NNE,21,1.0,1.0,77,0.00,,,0.00,0,Wunderground v.1.15,2013-03-29 13:30:00,
2013-03-29 06:40:00,55.4,48.3,30.13,NE,36,0.0,1.0,77,0.00,,,0.00,0,Wunderground v.1.15,2013-03-29 13:40:00,
2013-03-29 06:50:00,55.5,48.4,30.13,NNE,13,1.0,1.0,77,0.00,,,0.00,0,Wunderground v.1.15,2013-03-29 13:50:00,
2013-03-29 07:00:00,55.7,48.6,30.12,NNE,19,1.0,1.0,77,0.00,,,0.00,5,Wunderground v.1.15,2013-03-29 14:00:00,
2013-03-29 07:10:00,55.6,48.2,30.13,East,96,0.0,0.0,76,0.00,,,0.00,12,Wunderground v.1.15,2013-03-29 14:10:00,
2013-03-29 07:20:00,55.2,47.8,30.13,ESE,118,0.0,3.0,76,0.00,,,0.00,18,Wunderground v.1.15,2013-03-29 14:20:00,
2013-03-29 07:30:00,55.0,47.9,30.13,North,360,1.0,3.0,77,0.00,,,0.00,47,Wunderground v.1.15,2013-03-29 14:30:00,
2013-03-29 07:40:00,55.4,48.3,30.13,North,360,2.0,2.0,77,0.00,,,0.00,58,Wunderground v.1.15,2013-03-29 14:40:00,
2013-03-29 07:50:00,55.8,48.7,30.13,NE,46,0.0,0.0,77,0.00,,,0.00,118,Wunderground v.1.15,2013-03-29 14:50:00,
2013-03-29 08:00:00,56.6,49.5,30.13,North,9,0.0,1.0,77,0.00,,,0.00,153,Wunderground v.1.15,2013-03-29 15:00:00,
2013-03-29 08:10:00,57.4,49.5,30.13,NE,40,1.0,2.0,75,0.00,,,0.00,200,Wunderground v.1.15,2013-03-29 15:10:00,
2013-03-29 08:20:00,58.2,49.6,30.13,NNE,27,1.0,3.0,73,0.00,,,0.00,243,Wunderground v.1.15,2013-03-29 15:20:00,
2013-03-29 08:30:00,58.7,49.7,30.13,NNE,28,2.0,2.0,72,0.00,,,0.00,237,Wunderground v.1.15,2013-03-29 15:30:00,
2013-03-29 08:40:00,59.3,49.9,30.13,NNE,28,2.0,3.0,71,0.00,,,0.00,301,Wunderground v.1.15,2013-03-29 15:40:00,
2013-03-29 08:50:00,59.9,50.1,30.13,NE,35,5.0,6.0,70,0.00,,,0.00,341,Wunderground v.1.15,2013-03-29 15:50:00,
2013-03-29 09:00:00,60.3,49.7,30.13,North,10,6.0,6.0,68,0.00,,,0.00,376,Wunderground v.1.15,2013-03-29 16:00:00,
2013-03-29 09:10:00,60.6,50.0,30.14,NE,40,6.0,6.0,68,0.00,,,0.00,410,Wunderground v.1.15,2013-03-29 16:10:00,
2013-03-29 09:20:00,60.7,49.7,30.14,ENE,57,8.0,8.0,67,0.00,,,0.00,396,Wunderground v.1.15,2013-03-29 16:20:00,
2013-03-29 09:30:00,61.1,50.1,30.13,ENE,60,8.0,8.0,67,0.00,,,0.00,480,Wunderground v.1.15,2013-03-29 16:30:00,
2013-03-29 09:40:00,62.2,50.3,30.13,North,10,5.0,7.0,65,0.00,,,0.00,464,Wunderground v.1.15,2013-03-29 16:40:00,
2013-03-29 09:50:00,62.0,49.7,30.13,NNW,344,8.0,9.0,64,0.00,,,0.00,524,Wunderground v.1.15,2013-03-29 16:50:00,
2013-03-29 10:00:00,62.5,50.2,30.13,NE,54,7.0,7.0,64,0.00,,,0.00,563,Wunderground v.1.15,2013-03-29 17:00:00,
2013-03-29 10:10:00,63.2,50.8,30.13,NNE,28,6.0,6.0,64,0.00,,,0.00,564,Wunderground v.1.15,2013-03-29 17:10:00,
2013-03-29 10:20:00,64.3,51.0,30.13,NE,39,4.0,11.0,62,0.00,,,0.00,631,Wunderground v.1.15,2013-03-29 17:20:00,
2013-03-29 10:30:00,64.8,51.0,30.13,NNE,14,6.0,6.0,61,0.00,,,0.00,650,Wunderground v.1.15,2013-03-29 17:30:00,
2013-03-29 10:40:00,65.0,50.8,30.13,North,11,7.0,9.0,60,0.00,,,0.00,670,Wunderground v.1.15,2013-03-29 17:40:00,
2013-03-29 10:50:00,65.2,51.0,30.13,NNW,330,6.0,10.0,60,0.00,,,0.00,701,Wunderground v.1.15,2013-03-29 17:50:00,
2013-03-29 11:00:00,64.8,51.0,30.13,North,355,8.0,8.0,61,0.00,,,0.00,710,Wunderground v.1.15,2013-03-29 18:00:00,
2013-03-29 11:10:00,65.6,51.3,30.12,NE,41,7.0,7.0,60,0.00,,,0.00,754,Wunderground v.1.15,2013-03-29 18:10:00,
2013-03-29 11:20:00,65.9,51.6,30.12,NE,36,8.0,9.0,60,0.00,,,0.00,763,Wunderground v.1.15,2013-03-29 18:20:00,
2013-03-29 11:30:00,66.3,51.1,30.12,NNE,17,7.0,7.0,58,0.00,,,0.00,788,Wunderground v.1.15,2013-03-29 18:30:00,
2013-03-29 11:40:00,66.3,51.1,30.12,NNE,26,8.0,9.0,58,0.00,,,0.00,796,Wunderground v.1.15,2013-03-29 18:40:00,
2013-03-29 11:50:00,66.4,51.2,30.12,North,355,7.0,7.0,58,0.00,,,0.00,782,Wunderground v.1.15,2013-03-29 18:50:00,
2013-03-29 12:00:00,68.2,51.9,30.12,NNW,329,6.0,6.0,56,0.00,,,0.00,826,Wunderground v.1.15,2013-03-29 19:00:00,
2013-03-29 12:10:00,67.0,51.3,30.12,NNE,22,9.0,9.0,57,0.00,,,0.00,838,Wunderground v.1.15,2013-03-29 19:10:00,
2013-03-29 12:20:00,69.7,52.8,30.11,NNE,22,5.0,5.0,55,0.00,,,0.00,847,Wunderground v.1.15,2013-03-29 19:20:00,
2013-03-29 12:30:00,68.9,52.6,30.11,East,84,6.0,6.0,56,0.00,,,0.00,851,Wunderground v.1.15,2013-03-29 19:30:00,
2013-03-29 12:40:00,69.8,52.9,30.11,West,278,6.0,6.0,55,0.00,,,0.00,898,Wunderground v.1.15,2013-03-29 19:40:00,
2013-03-29 12:50:00,70.1,52.7,30.11,NE,48,7.0,7.0,54,0.00,,,0.00,874,Wunderground v.1.15,2013-03-29 19:50:00,
2013-03-29 13:00:00,69.6,52.2,30.11,NNE,28,6.0,6.0,54,0.00,,,0.00,872,Wunderground v.1.15,2013-03-29 20:00:00,
2013-03-29 13:10:00,70.2,52.3,30.10,ENE,63,4.0,5.0,53,0.00,,,0.00,902,Wunderground v.1.15,2013-03-29 20:10:00,
2013-03-29 13:20:00,71.0,53.0,30.10,East,88,3.0,3.0,53,0.00,,,0.00,494,Wunderground v.1.15,2013-03-29 20:20:00,
2013-03-29 13:30:00,69.8,52.4,30.10,NNE,18,4.0,5.0,54,0.00,,,0.00,819,Wunderground v.1.15,2013-03-29 20:30:00,
2013-03-29 13:40:00,72.4,54.8,30.09,North,351,1.0,8.0,54,0.00,,,0.00,860,Wunderground v.1.15,2013-03-29 20:40:00,
2013-03-29 13:50:00,71.0,53.0,30.09,NNE,22,3.0,3.0,53,0.00,,,0.00,937,Wunderground v.1.15,2013-03-29 20:50:00,
2013-03-29 14:00:00,72.5,53.3,30.09,NNE,20,1.0,1.0,51,0.00,,,0.00,758,Wunderground v.1.15,2013-03-29 21:00:00,
2013-03-29 14:10:00,72.0,52.9,30.08,NW,307,1.0,3.0,51,0.00,,,0.00,403,Wunderground v.1.15,2013-03-29 21:10:00,
2013-03-29 14:20:00,72.1,53.0,30.08,North,360,1.0,4.0,51,0.00,,,0.00,392,Wunderground v.1.15,2013-03-29 21:20:00,
2013-03-29 14:30:00,73.5,53.2,30.08,NNE,24,3.0,3.0,49,0.00,,,0.00,925,Wunderground v.1.15,2013-03-29 21:30:00,
2013-03-29 14:40:00,74.3,53.3,30.07,ENE,59,3.0,3.0,48,0.00,,,0.00,1020,Wunderground v.1.15,2013-03-29 21:40:00,
2013-03-29 14:50:00,75.4,53.2,30.07,NNE,30,2.0,2.0,46,0.00,,,0.00,789,Wunderground v.1.15,2013-03-29 21:50:00,
2013-03-29 15:00:00,74.9,52.7,30.07,NE,49,2.0,4.0,46,0.00,,,0.00,817,Wunderground v.1.15,2013-03-29 22:00:00,
2013-03-29 15:10:00,74.4,54.0,30.06,East,82,4.0,4.0,49,0.00,,,0.00,925,Wunderground v.1.15,2013-03-29 22:10:00,
2013-03-29 15:20:00,75.6,53.4,30.05,NNE,32,2.0,2.0,46,0.00,,,0.00,643,Wunderground v.1.15,2013-03-29 22:20:00,
2013-03-29 15:30:00,74.3,53.3,30.05,North,11,4.0,4.0,48,0.00,,,0.00,313,Wunderground v.1.15,2013-03-29 22:30:00,
2013-03-29 15:40:00,74.5,52.9,30.05,North,5,4.0,6.0,47,0.00,,,0.00,870,Wunderground v.1.15,2013-03-29 22:40:00,
2013-03-29 15:50:00,75.6,53.9,30.05,NNW,333,3.0,3.0,47,0.00,,,0.00,292,Wunderground v.1.15,2013-03-29 22:50:00,
2013-03-29 16:00:00,75.9,54.2,30.05,NNW,327,2.0,4.0,47,0.00,,,0.00,262,Wunderground v.1.15,2013-03-29 23:00:00,
2013-03-29 16:10:00,75.5,53.3,30.05,NNE,30,3.0,5.0,46,0.00,,,0.00,260,Wunderground v.1.15,2013-03-29 23:10:00,
2013-03-29 16:20:00,74.5,52.9,30.05,NNE,12,5.0,6.0,47,0.00,,,0.00,325,Wunderground v.1.15,2013-03-29 23:20:00,
2013-03-29 16:30:00,75.2,53.6,30.04,NNE,13,2.0,2.0,47,0.00,,,0.00,694,Wunderground v.1.15,2013-03-29 23:30:00,
2013-03-29 16:40:00,75.8,54.1,30.04,NNW,336,2.0,2.0,47,0.00,,,0.00,362,Wunderground v.1.15,2013-03-29 23:40:00,
2013-03-29 16:50:00,75.9,53.6,30.04,North,9,3.0,3.0,46,0.00,,,0.00,650,Wunderground v.1.15,2013-03-29 23:50:00,
2013-03-29 17:00:00,76.2,53.3,30.04,North,349,3.0,7.0,45,0.00,,,0.00,538,Wunderground v.1.15,2013-03-30 00:00:00,
2013-03-29 17:10:00,75.7,53.4,30.04,NW,314,3.0,3.0,46,0.00,,,0.00,485,Wunderground v.1.15,2013-03-30 00:10:00,
2013-03-29 17:20:00,75.3,53.7,30.04,NW,304,2.0,4.0,47,0.00,,,0.00,401,Wunderground v.1.15,2013-03-30 00:20:00,
2013-03-29 17:30:00,74.8,53.2,30.04,NW,309,3.0,4.0,47,0.00,,,0.00,320,Wunderground v.1.15,2013-03-30 00:30:00,
2013-03-29 17:40:00,74.4,53.4,30.04,NW,308,3.0,3.0,48,0.00,,,0.00,139,Wunderground v.1.15,2013-03-30 00:40:00,
2013-03-29 17:50:00,74.2,52.7,30.04,NNE,19,2.0,3.0,47,0.00,,,0.00,95,Wunderground v.1.15,2013-03-30 00:50:00,
2013-03-29 18:00:00,73.7,53.3,30.04,NW,310,1.0,1.0,49,0.00,,,0.00,70,Wunderground v.1.15,2013-03-30 01:00:00,
2013-03-29 18:10:00,73.3,54.1,30.04,WSW,244,0.0,1.0,51,0.00,,,0.00,72,Wunderground v.1.15,2013-03-30 01:10:00,
2013-03-29 18:20:00,72.4,53.8,30.04,WSW,250,0.0,1.0,52,0.00,,,0.00,81,Wunderground v.1.15,2013-03-30 01:20:00,
2013-03-29 18:30:00,71.3,52.8,30.04,WSW,244,1.0,1.0,52,0.00,,,0.00,54,Wunderground v.1.15,2013-03-30 01:30:00,
2013-03-29 18:40:00,70.8,52.3,30.04,SSW,199,0.0,0.0,52,0.00,,,0.00,49,Wunderground v.1.15,2013-03-30 01:40:00,
2013-03-29 18:50:00,70.2,52.3,30.04,SSW,199,0.0,0.0,53,0.00,,,0.00,47,Wunderground v.1.15,2013-03-30 01:50:00,
2013-03-29 19:00:00,69.5,51.6,30.04,SSW,199,0.0,0.0,53,0.00,,,0.00,23,Wunderground v.1.15,2013-03-30 02:00:00,
2013-03-29 19:10:00,68.9,51.6,30.04,SSW,199,0.0,0.0,54,0.00,,,0.00,9,Wunderground v.1.15,2013-03-30 02:10:00,
2013-03-29 19:20:00,68.2,50.9,30.04,SW,218,0.0,0.0,54,0.00,,,0.00,0,Wunderground v.1.15,2013-03-30 02:20:00,
2013-03-29 19:30:00,67.6,50.4,30.04,SW,218,0.0,0.0,54,0.00,,,0.00,0,Wunderground v.1.15,2013-03-30 02:30:00,
2013-03-29 19:40:00,67.1,50.4,30.04,West,260,0.0,0.0,55,0.00,,,0.00,0,Wunderground v.1.15,2013-03-30 02:40:00,
2013-03-29 19:50:00,66.5,50.3,30.04,WNW,292,0.0,2.0,56,0.00,,,0.00,0,Wunderground v.1.15,2013-03-30 02:50:00,
2013-03-29 20:00:00,66.0,50.3,30.04,NW,312,1.0,4.0,57,0.00,,,0.00,0,Wunderground v.1.15,2013-03-30 03:00:00,
2013-03-29 20:10:00,65.7,50.0,30.05,NW,315,0.0,0.0,57,0.00,,,0.00,0,Wunderground v.1.15,2013-03-30 03:10:00,
2013-03-29 20:20:00,65.5,50.3,30.05,NW,315,0.0,0.0,58,0.00,,,0.00,0,Wunderground v.1.15,2013-03-30 03:20:00,
2013-03-29 20:30:00,65.3,50.1,30.05,NW,315,0.0,0.0,58,0.00,,,0.00,0,Wunderground v.1.15,2013-03-30 03:30:00,
2013-03-29 20:40:00,65.2,50.0,30.05,NW,315,0.0,0.0,58,0.00,,,0.00,0,Wunderground v.1.15,2013-03-30 03:40:00,
2013-03-29 20:50:00,65.1,50.0,30.06,NW,315,0.0,0.0,58,0.00,,,0.00,0,Wunderground v.1.15,2013-03-30 03:50:00,
2013-03-29 21:00:00,65.0,50.3,30.06,NW,314,0.0,0.0,59,0.00,,,0.00,0,Wunderground v.1.15,2013-03-30 04:00:00,
2013-03-29 21:10:00,64.9,50.2,30.06,NW,314,0.0,0.0,59,0.00,,,0.00,0,Wunderground v.1.15,2013-03-30 04:10:00,
2013-03-29 21:20:00,64.8,50.1,30.07,WNW,291,0.0,0.0,59,0.00,,,0.00,0,Wunderground v.1.15,2013-03-30 04:20:00,
2013-03-29 21:30:00,64.7,50.5,30.07,WNW,291,0.0,0.0,60,0.00,,,0.00,0,Wunderground v.1.15,2013-03-30 04:30:00,
2013-03-29 21:40:00,64.5,50.3,30.07,WNW,292,0.0,0.0,60,0.00,,,0.00,0,Wunderground v.1.15,2013-03-30 04:40:00,
2013-03-29 21:50:00,64.3,50.1,30.07,WNW,292,0.0,1.0,60,0.00,,,0.00,0,Wunderground v.1.15,2013-03-30 04:50:00,
2013-03-29 22:00:00,64.1,50.4,30.07,WNW,291,0.0,0.0,61,0.00,,,0.00,0,Wunderground v.1.15,2013-03-30 05:00:00,
2013-03-29 22:10:00,63.9,50.2,30.08,WNW,291,0.0,0.0,61,0.00,,,0.00,0,Wunderground v.1.15,2013-03-30 05:10:00,
2013-03-29 22:20:00,63.7,50.4,30.07,WNW,291,0.0,0.0,62,0.00,,,0.00,0,Wunderground v.1.15,2013-03-30 05:20:00,
2013-03-29 22:30:00,63.4,50.1,30.07,WNW,291,0.0,0.0,62,0.00,,,0.00,0,Wunderground v.1.15,2013-03-30 05:30:00,
2013-03-29 22:40:00,63.1,49.9,30.07,WNW,291,0.0,0.0,62,0.00,,,0.00,0,Wunderground v.1.15,2013-03-30 05:40:00,
2013-03-29 22:50:00,62.8,50.0,30.07,WNW,291,0.0,0.0,63,0.00,,,0.00,0,Wunderground v.1.15,2013-03-30 05:50:00,
2013-03-29 23:00:00,62.6,50.2,30.07,WNW,289,0.0,0.0,64,0.00,,,0.00,0,Wunderground v.1.15,2013-03-30 06:00:00,
2013-03-29 23:10:00,62.3,50.4,30.07,WNW,289,0.0,0.0,65,0.00,,,0.00,0,Wunderground v.1.15,2013-03-30 06:10:00,
2013-03-29 23:20:00,62.1,50.2,30.08,SW,228,0.0,0.0,65,0.00,,,0.00,0,Wunderground v.1.15,2013-03-30 06:20:00,
2013-03-29 23:30:00,61.9,50.4,30.07,SW,227,0.0,0.0,66,0.00,,,0.00,0,Wunderground v.1.15,2013-03-30 06:30:00,
2013-03-29 23:40:00,61.7,50.6,30.07,SW,228,0.0,0.0,67,0.00,,,0.00,0,Wunderground v.1.15,2013-03-30 06:40:00,
2013-03-29 23:50:00,61.3,50.2,30.07,WSW,237,0.0,0.0,67,0.00,,,0.00,0,Wunderground v.1.15,2013-03-30 06:50:00,